TimeCST,TemperatureF,Dew PointF,Humidity,Sea Level PressureIn,VisibilityMPH,Wind Direction,Wind SpeedMPH,Gust SpeedMPH,PrecipitationIn,Events,Conditions,WindDirDegrees,DateUTC
1:52 AM,32.0,25.0,75,29.92,8.0,ENE,8.1,-,N/A,,Overcast,60,2013-03-05 07:52:00
2:46 AM,30.2,26.6,86,29.89,2.0,NE,4.6,-,0.00,Snow,Light Snow,50,2013-03-05 08:46:00
2:52 AM,30.9,26.1,82,29.91,2.0,NE,4.6,-,0.00,Snow,Light Snow,50,2013-03-05 08:52:00
3:06 AM,30.2,26.6,86,29.89,1.8,NE,4.6,-,N/A,Snow,Light Snow,50,2013-03-05 09:06:00
3:28 AM,30.2,26.6,86,29.88,2.0,NE,3.5,-,0.01,Snow,Light Snow,40,2013-03-05 09:28:00
3:52 AM,30.0,27.0,88,29.90,1.8,ENE,4.6,-,0.01,Snow,Light Snow,60,2013-03-05 09:52:00
3:59 AM,30.2,26.6,86,29.88,2.0,NE,5.8,-,0.00,Snow,Light Snow,50,2013-03-05 09:59:00
4:04 AM,30.2,26.6,86,29.88,1.2,ENE,3.5,-,0.01,Snow,Light Snow,60,2013-03-05 10:04:00
4:22 AM,30.2,28.4,93,29.88,0.8,ENE,3.5,-,0.02,Snow,Light Snow,60,2013-03-05 10:22:00
4:41 AM,30.2,28.4,93,29.88,0.5,ENE,5.8,-,0.04,Fog-Snow,Snow,60,2013-03-05 10:41:00
4:52 AM,30.0,28.0,92,29.89,0.5,ENE,3.5,-,0.06,Fog-Snow,Snow,60,2013-03-05 10:52:00
5:40 AM,30.2,28.4,93,29.89,1.0,Calm,Calm,-,0.03,Snow,Light Snow,0,2013-03-05 11:40:00
5:52 AM,30.0,28.0,92,29.91,1.2,Calm,Calm,-,0.03,Snow,Light Snow,0,2013-03-05 11:52:00
6:05 AM,30.2,28.4,93,29.89,0.8,Calm,Calm,-,0.02,Snow,Light Snow,0,2013-03-05 12:05:00
6:52 AM,30.0,28.0,92,29.92,0.5,WNW,3.5,-,0.06,Fog-Snow,Light Snow,300,2013-03-05 12:52:00
7:02 AM,30.2,28.4,93,29.89,0.5,WNW,4.6,-,0.00,Fog-Snow,Light Snow,300,2013-03-05 13:02:00
7:52 AM,30.0,28.0,92,29.91,0.8,NW,5.8,-,0.02,Snow,Light Snow,310,2013-03-05 13:52:00
8:52 AM,30.0,27.0,88,29.91,0.5,NW,6.9,-,0.04,Fog-Snow,Snow,310,2013-03-05 14:52:00
9:15 AM,30.2,28.4,93,29.88,0.2,NW,9.2,-,0.01,Fog-Snow,Snow,310,2013-03-05 15:15:00
9:23 AM,30.2,28.4,93,29.88,0.5,NW,11.5,-,0.02,Fog-Snow,Snow,310,2013-03-05 15:23:00
9:36 AM,30.2,26.6,86,29.88,0.5,NNW,9.2,-,0.02,Fog-Snow,Light Snow,330,2013-03-05 15:36:00
9:52 AM,30.0,27.0,88,29.90,1.0,NW,9.2,-,0.03,Snow,Light Snow,310,2013-03-05 15:52:00
10:09 AM,30.2,26.6,86,29.87,0.8,NW,10.4,-,0.00,Snow,Light Snow,310,2013-03-05 16:09:00
10:52 AM,30.0,27.0,88,29.90,1.0,WNW,9.2,-,0.00,Snow,Light Snow,300,2013-03-05 16:52:00
11:14 AM,30.2,26.6,86,29.88,1.8,WNW,13.8,20.7,0.01,Snow,Light Snow,300,2013-03-05 17:14:00
11:22 AM,30.2,26.6,86,29.88,2.0,WNW,10.4,20.7,0.01,Snow,Light Snow,300,2013-03-05 17:22:00
11:50 AM,30.2,26.6,86,29.88,1.5,WNW,18.4,-,0.01,Snow,Light Snow,300,2013-03-05 17:50:00
11:52 AM,30.9,26.1,82,29.90,1.5,WNW,16.1,24.2,0.01,Snow,Light Snow,290,2013-03-05 17:52:00
12:02 PM,30.2,26.6,86,29.88,2.5,WNW,16.1,24.2,0.00,Snow,Light Snow,300,2013-03-05 18:02:00
12:50 PM,30.2,24.8,80,29.87,2.5,WNW,18.4,27.6,0.00,,Haze,300,2013-03-05 18:50:00
12:52 PM,30.9,25.0,79,29.89,6.0,WNW,21.9,27.6,0.00,,Haze,300,2013-03-05 18:52:00
1:08 PM,30.2,24.8,80,29.88,6.0,WNW,19.6,28.8,N/A,,Haze,300,2013-03-05 19:08:00
1:28 PM,30.2,24.8,80,29.87,5.0,WNW,25.3,31.1,0.00,,Overcast,300,2013-03-05 19:28:00
1:52 PM,30.9,25.0,79,29.90,5.0,WNW,17.3,29.9,0.00,,Haze,300,2013-03-05 19:52:00
2:26 PM,30.2,24.8,80,29.88,5.0,WNW,17.3,-,0.00,,Haze,290,2013-03-05 20:26:00
2:52 PM,30.9,25.0,79,29.91,3.0,WNW,17.3,26.5,0.00,Snow,Light Snow,300,2013-03-05 20:52:00
3:22 PM,30.2,26.6,86,29.90,2.5,WNW,19.6,29.9,0.00,Snow,Light Snow,300,2013-03-05 21:22:00
3:41 PM,30.2,26.6,86,29.90,3.0,WNW,19.6,26.5,0.00,Snow,Light Snow,300,2013-03-05 21:41:00
3:52 PM,30.9,26.1,82,29.92,3.0,NW,15.0,25.3,0.00,Snow,Light Snow,310,2013-03-05 21:52:00
4:52 PM,30.9,26.1,82,29.94,3.0,NW,16.1,24.2,0.00,Snow,Light Snow,310,2013-03-05 22:52:00
5:52 PM,30.9,26.1,82,29.98,5.0,NW,13.8,-,0.00,,Haze,320,2013-03-05 23:52:00
6:52 PM,30.0,25.0,82,30.02,4.0,NNW,18.4,24.2,0.00,Snow,Light Snow,330,2013-03-06 00:52:00
6:59 PM,30.2,24.8,80,30.00,4.0,NNW,18.4,27.6,0.00,Snow,Light Snow,340,2013-03-06 00:59:00
7:02 PM,30.2,24.8,80,30.00,5.0,NNW,15.0,27.6,0.00,Snow,Light Snow,330,2013-03-06 01:02:00
7:52 PM,30.0,25.0,82,30.05,6.0,NNW,17.3,29.9,0.00,,Haze,340,2013-03-06 01:52:00
8:52 PM,28.9,24.1,82,30.08,6.0,NNW,11.5,-,N/A,,Haze,340,2013-03-06 02:52:00
9:30 PM,28.4,24.8,86,30.08,6.0,NNW,12.7,19.6,N/A,,Haze,340,2013-03-06 03:30:00
9:52 PM,28.9,24.1,82,30.12,7.0,North,9.2,-,N/A,,Overcast,350,2013-03-06 03:52:00
10:23 PM,28.4,23.0,80,30.10,9.0,NNW,13.8,19.6,N/A,,Mostly Cloudy,340,2013-03-06 04:23:00
10:52 PM,28.9,23.0,78,30.14,10.0,NNW,15.0,21.9,N/A,,Mostly Cloudy,340,2013-03-06 04:52:00
11:52 PM,28.9,23.0,78,30.16,10.0,NNW,12.7,20.7,N/A,,Overcast,330,2013-03-06 05:52:00